Time,TemperatureF,DewpointF,PressureIn,WindDirection,WindDirectionDegrees,WindSpeedMPH,WindSpeedGustMPH,Humidity,HourlyPrecipIn,Conditions,Clouds,dailyrainin,SoftwareType,DateUTC
2013-10-25 00:00:00,37.3,26.6,30.09,South,180,0.7,1.1,65,0.00,,,0.00,WUHU216HW,2013-10-25 04:00:00,
2013-10-25 00:01:00,37.3,26.6,30.09,South,180,0.7,1.1,65,0.00,,,0.00,WUHU216HW,2013-10-25 04:01:00,
2013-10-25 00:02:00,37.1,26.4,30.09,SSE,158,0.0,1.1,65,0.00,,,0.00,WUHU216HW,2013-10-25 04:02:00,
2013-10-25 00:07:00,37.1,26.4,30.09,SSE,158,0.7,1.1,65,0.00,,,0.00,WUHU216HW,2013-10-25 04:07:00,
2013-10-25 00:12:00,36.9,26.2,30.09,SSE,158,0.0,0.9,65,0.00,,,0.00,WUHU216HW,2013-10-25 04:12:00,
2013-10-25 00:17:00,36.7,26.8,30.09,West,270,0.0,0.7,67,0.00,,,0.00,WUHU216HW,2013-10-25 04:17:00,
2013-10-25 00:22:00,36.2,27.0,30.08,West,270,0.0,0.4,69,0.00,,,0.00,WUHU216HW,2013-10-25 04:22:00,
2013-10-25 00:27:00,35.6,26.5,30.08,West,270,0.0,0.4,69,0.00,,,0.00,WUHU216HW,2013-10-25 04:27:00,
2013-10-25 00:32:00,35.5,25.9,30.09,West,270,0.0,0.2,68,0.00,,,0.00,WUHU216HW,2013-10-25 04:32:00,
2013-10-25 00:37:00,35.5,27.0,30.08,WNW,293,0.4,0.4,71,0.00,,,0.00,WUHU216HW,2013-10-25 04:37:00,
2013-10-25 00:42:00,35.6,27.2,30.08,WNW,293,0.7,0.7,71,0.00,,,0.00,WUHU216HW,2013-10-25 04:42:00,
2013-10-25 00:47:00,35.8,27.0,30.08,SW,225,0.4,0.7,70,0.00,,,0.00,WUHU216HW,2013-10-25 04:47:00,
2013-10-25 00:52:00,35.8,26.7,30.09,SW,225,0.2,0.9,69,0.00,,,0.00,WUHU216HW,2013-10-25 04:52:00,
2013-10-25 00:57:00,35.6,26.1,30.08,SW,225,0.0,0.9,68,0.00,,,0.00,WUHU216HW,2013-10-25 04:57:00,
2013-10-25 01:02:00,35.6,26.1,30.09,SW,225,0.4,0.4,68,0.00,,,0.00,WUHU216HW,2013-10-25 05:02:00,
2013-10-25 01:07:00,35.6,26.1,30.09,SSW,203,1.3,1.3,68,0.00,,,0.00,WUHU216HW,2013-10-25 05:07:00,
2013-10-25 01:12:00,35.5,26.3,30.09,SW,225,0.0,1.3,69,0.00,,,0.00,WUHU216HW,2013-10-25 05:12:00,
2013-10-25 01:17:00,35.3,26.8,30.09,WNW,293,0.0,1.1,71,0.00,,,0.00,WUHU216HW,2013-10-25 05:17:00,
2013-10-25 01:22:00,35.1,26.3,30.09,SW,225,0.4,0.4,70,0.00,,,0.00,WUHU216HW,2013-10-25 05:22:00,
2013-10-25 01:27:00,34.9,26.1,30.09,SSW,203,0.4,0.9,70,0.00,,,0.00,WUHU216HW,2013-10-25 05:27:00,
2013-10-25 01:32:00,34.9,26.1,30.09,SSE,158,0.7,1.1,70,0.00,,,0.00,WUHU216HW,2013-10-25 05:32:00,
2013-10-25 01:37:00,34.9,26.1,30.09,South,180,1.1,1.1,70,0.00,,,0.00,WUHU216HW,2013-10-25 05:37:00,
2013-10-25 01:42:00,34.9,26.5,30.09,South,180,0.0,1.1,71,0.00,,,0.00,WUHU216HW,2013-10-25 05:42:00,
2013-10-25 01:47:00,34.7,25.9,30.09,SSW,203,0.7,1.1,70,0.00,,,0.00,WUHU216HW,2013-10-25 05:47:00,
2013-10-25 01:52:00,34.6,26.1,30.09,SSW,203,0.9,1.1,71,0.00,,,0.00,WUHU216HW,2013-10-25 05:52:00,
2013-10-25 01:57:00,34.6,26.1,30.09,SW,225,0.4,1.8,71,0.00,,,0.00,WUHU216HW,2013-10-25 05:57:00,
2013-10-25 02:02:00,34.2,25.8,30.09,NW,315,0.0,1.8,71,0.00,,,0.00,WUHU216HW,2013-10-25 06:02:00,
2013-10-25 02:07:00,33.8,25.7,30.09,WNW,293,0.0,0.4,72,0.00,,,0.00,WUHU216HW,2013-10-25 06:07:00,
2013-10-25 02:12:00,33.7,25.5,30.09,West,270,0.0,0.4,72,0.00,,,0.00,WUHU216HW,2013-10-25 06:12:00,
2013-10-25 02:17:00,33.5,25.0,30.09,SW,225,0.2,0.4,71,0.00,,,0.00,WUHU216HW,2013-10-25 06:17:00,
2013-10-25 02:22:00,33.5,25.0,30.09,SSW,203,0.0,0.4,71,0.00,,,0.00,WUHU216HW,2013-10-25 06:22:00,
2013-10-25 02:27:00,33.5,25.0,30.09,SSW,203,0.0,1.1,71,0.00,,,0.00,WUHU216HW,2013-10-25 06:27:00,
2013-10-25 02:32:00,33.5,25.0,30.10,South,180,1.1,1.1,71,0.00,,,0.00,WUHU216HW,2013-10-25 06:32:00,
2013-10-25 02:37:00,33.5,25.4,30.09,SSE,158,1.3,1.8,72,0.00,,,0.00,WUHU216HW,2013-10-25 06:37:00,
2013-10-25 02:42:00,33.5,25.4,30.10,SSE,158,0.7,2.0,72,0.00,,,0.00,WUHU216HW,2013-10-25 06:42:00,
2013-10-25 02:47:00,33.5,25.4,30.10,SSW,203,0.2,2.0,72,0.00,,,0.00,WUHU216HW,2013-10-25 06:47:00,
2013-10-25 02:52:00,33.3,25.8,30.10,SW,225,0.0,0.9,74,0.00,,,0.00,WUHU216HW,2013-10-25 06:52:00,
2013-10-25 02:57:00,32.9,25.2,30.10,NNW,338,0.0,0.7,73,0.00,,,0.00,WUHU216HW,2013-10-25 06:57:00,
2013-10-25 03:02:00,32.8,24.7,30.10,South,180,0.4,0.7,72,0.00,,,0.00,WUHU216HW,2013-10-25 07:02:00,
2013-10-25 03:07:00,32.8,25.0,30.10,South,180,0.0,1.6,73,0.00,,,0.00,WUHU216HW,2013-10-25 07:07:00,
2013-10-25 03:12:00,32.6,24.8,30.10,East,90,0.4,1.6,73,0.00,,,0.00,WUHU216HW,2013-10-25 07:12:00,
2013-10-25 03:17:00,32.4,24.7,30.10,South,180,0.4,0.7,73,0.00,,,0.00,WUHU216HW,2013-10-25 07:17:00,
2013-10-25 03:22:00,32.2,25.2,30.10,SW,225,0.0,0.4,75,0.00,,,0.00,WUHU216HW,2013-10-25 07:22:00,
2013-10-25 03:27:00,31.9,25.8,30.10,WSW,248,0.4,1.1,78,0.00,,,0.00,WUHU216HW,2013-10-25 07:27:00,
2013-10-25 03:32:00,31.5,25.5,30.10,NW,315,0.4,1.1,78,0.00,,,0.00,WUHU216HW,2013-10-25 07:32:00,
2013-10-25 03:37:00,31.3,24.7,30.10,SSW,203,0.9,0.9,76,0.00,,,0.00,WUHU216HW,2013-10-25 07:37:00,
2013-10-25 03:42:00,31.3,24.7,30.10,North,0,0.4,1.6,76,0.00,,,0.00,WUHU216HW,2013-10-25 07:42:00,
2013-10-25 03:47:00,31.3,25.3,30.10,North,0,0.4,1.6,78,0.00,,,0.00,WUHU216HW,2013-10-25 07:47:00,
2013-10-25 03:52:00,31.3,25.3,30.11,ENE,68,0.0,1.6,78,0.00,,,0.00,WUHU216HW,2013-10-25 07:52:00,
2013-10-25 03:57:00,31.5,25.1,30.10,SSW,203,0.9,1.3,77,0.00,,,0.00,WUHU216HW,2013-10-25 07:57:00,
2013-10-25 04:02:00,31.5,25.5,30.10,North,0,0.2,1.3,78,0.00,,,0.00,WUHU216HW,2013-10-25 08:02:00,
2013-10-25 04:07:00,31.3,24.9,30.11,NNE,23,0.0,1.1,77,0.00,,,0.00,WUHU216HW,2013-10-25 08:07:00,
2013-10-25 04:12:00,31.3,24.9,30.10,SSW,203,0.0,2.2,77,0.00,,,0.00,WUHU216HW,2013-10-25 08:12:00,
2013-10-25 04:17:00,31.3,24.7,30.10,SSW,203,0.4,2.2,76,0.00,,,0.00,WUHU216HW,2013-10-25 08:17:00,
2013-10-25 04:22:00,31.5,24.9,30.11,ENE,68,0.0,0.7,76,0.00,,,0.00,WUHU216HW,2013-10-25 08:22:00,
2013-10-25 04:27:00,31.3,24.7,30.11,ENE,68,0.0,0.7,76,0.00,,,0.00,WUHU216HW,2013-10-25 08:27:00,
2013-10-25 04:32:00,31.3,24.7,30.11,ENE,68,0.0,0.7,76,0.00,,,0.00,WUHU216HW,2013-10-25 08:32:00,
2013-10-25 04:37:00,31.3,24.7,30.11,SSW,203,0.7,1.1,76,0.00,,,0.00,WUHU216HW,2013-10-25 08:37:00,
2013-10-25 04:42:00,31.1,24.5,30.11,SSW,203,0.0,1.1,76,0.00,,,0.00,WUHU216HW,2013-10-25 08:42:00,
2013-10-25 04:47:00,31.1,25.1,30.11,SSW,203,0.0,0.7,78,0.00,,,0.00,WUHU216HW,2013-10-25 08:47:00,
2013-10-25 04:52:00,31.0,24.3,30.12,NNW,338,0.0,0.7,76,0.00,,,0.00,WUHU216HW,2013-10-25 08:52:00,
2013-10-25 04:57:00,31.0,24.3,30.12,West,270,0.2,0.7,76,0.00,,,0.00,WUHU216HW,2013-10-25 08:57:00,
2013-10-25 05:02:00,31.0,24.6,30.12,SSE,158,0.0,0.4,77,0.00,,,0.00,WUHU216HW,2013-10-25 09:02:00,
2013-10-25 05:08:00,30.8,24.4,30.13,SSW,203,0.7,1.1,77,0.00,,,0.00,WUHU216HW,2013-10-25 09:08:00,
2013-10-25 05:13:00,31.0,24.6,30.13,SW,225,0.4,1.1,77,0.00,,,0.00,WUHU216HW,2013-10-25 09:13:00,
2013-10-25 05:18:00,31.1,24.8,30.13,WSW,248,0.2,1.6,77,0.00,,,0.00,WUHU216HW,2013-10-25 09:18:00,
2013-10-25 05:23:00,31.3,24.9,30.13,WSW,248,1.6,2.0,77,0.00,,,0.00,WUHU216HW,2013-10-25 09:23:00,
2013-10-25 05:28:00,31.3,25.3,30.13,SW,225,0.0,2.9,78,0.00,,,0.00,WUHU216HW,2013-10-25 09:28:00,
2013-10-25 05:33:00,31.3,25.3,30.13,SSW,203,1.8,4.0,78,0.00,,,0.00,WUHU216HW,2013-10-25 09:33:00,
2013-10-25 05:39:00,31.5,25.5,30.13,SW,225,0.4,2.9,78,0.00,,,0.00,WUHU216HW,2013-10-25 09:39:00,
2013-10-25 05:44:00,31.7,25.3,30.14,SSW,203,1.3,3.6,77,0.00,,,0.00,WUHU216HW,2013-10-25 09:44:00,
2013-10-25 05:49:00,32.0,25.7,30.14,SSW,203,1.8,3.6,77,0.00,,,0.00,WUHU216HW,2013-10-25 09:49:00,
2013-10-25 05:54:00,32.0,25.7,30.14,West,270,0.0,3.1,77,0.00,,,0.00,WUHU216HW,2013-10-25 09:54:00,
2013-10-25 05:59:00,32.0,25.7,30.14,WSW,248,0.0,3.1,77,0.00,,,0.00,WUHU216HW,2013-10-25 09:59:00,
2013-10-25 06:04:00,32.0,25.7,30.15,South,180,0.0,1.1,77,0.00,,,0.00,WUHU216HW,2013-10-25 10:04:00,
2013-10-25 06:09:00,32.0,25.4,30.15,SW,225,3.4,3.4,76,0.00,,,0.00,WUHU216HW,2013-10-25 10:09:00,
2013-10-25 06:14:00,32.0,25.4,30.15,NW,315,0.0,4.0,76,0.00,,,0.00,WUHU216HW,2013-10-25 10:14:00,
2013-10-25 06:19:00,32.0,25.7,30.15,WSW,248,0.0,4.0,77,0.00,,,0.00,WUHU216HW,2013-10-25 10:19:00,
2013-10-25 06:24:00,32.0,25.4,30.15,SSW,203,0.9,3.8,76,0.00,,,0.00,WUHU216HW,2013-10-25 10:24:00,
2013-10-25 06:29:00,32.2,25.5,30.15,West,270,0.0,3.8,76,0.00,,,0.00,WUHU216HW,2013-10-25 10:29:00,
2013-10-25 06:34:00,32.4,25.7,30.15,SW,225,2.5,2.5,76,0.00,,,0.00,WUHU216HW,2013-10-25 10:34:00,
2013-10-25 06:39:00,32.6,26.2,30.16,WNW,293,0.2,2.5,77,0.00,,,0.00,WUHU216HW,2013-10-25 10:39:00,
2013-10-25 06:44:00,32.6,25.8,30.16,WSW,248,1.8,1.8,76,0.00,,,0.00,WUHU216HW,2013-10-25 10:44:00,
2013-10-25 06:49:00,32.4,25.7,30.16,WSW,248,0.0,1.8,76,0.00,,,0.00,WUHU216HW,2013-10-25 10:49:00,
2013-10-25 06:54:00,32.4,25.7,30.16,NW,315,0.0,1.6,76,0.00,,,0.00,WUHU216HW,2013-10-25 10:54:00,
2013-10-25 06:59:00,32.2,25.5,30.16,NNW,338,0.0,0.2,76,0.00,,,0.00,WUHU216HW,2013-10-25 10:59:00,
2013-10-25 07:04:00,32.0,25.4,30.16,WSW,248,0.2,0.7,76,0.00,,,0.00,WUHU216HW,2013-10-25 11:04:00,
2013-10-25 07:09:00,32.0,25.4,30.16,WSW,248,2.5,2.5,76,0.00,,,0.00,WUHU216HW,2013-10-25 11:09:00,
2013-10-25 07:14:00,32.2,25.5,30.16,SW,225,0.2,2.5,76,0.00,,,0.00,WUHU216HW,2013-10-25 11:14:00,
2013-10-25 07:19:00,32.2,25.5,30.17,SW,225,1.8,1.8,76,0.00,,,0.00,WUHU216HW,2013-10-25 11:19:00,
2013-10-25 07:24:00,32.4,25.7,30.17,SW,225,4.3,4.7,76,0.00,,,0.00,WUHU216HW,2013-10-25 11:24:00,
2013-10-25 07:29:00,32.8,26.3,30.17,SSW,203,2.5,4.7,77,0.00,,,0.00,WUHU216HW,2013-10-25 11:29:00,
2013-10-25 07:34:00,32.8,26.3,30.17,SW,225,0.4,4.3,77,0.00,,,0.00,WUHU216HW,2013-10-25 11:34:00,
2013-10-25 07:39:00,32.9,26.2,30.17,SW,225,2.0,4.3,76,0.00,,,0.00,WUHU216HW,2013-10-25 11:39:00,
2013-10-25 07:44:00,33.1,26.3,30.17,WSW,248,1.8,4.3,76,0.00,,,0.00,WUHU216HW,2013-10-25 11:44:00,
2013-10-25 07:49:00,33.3,26.5,30.17,SW,225,4.7,4.7,76,0.00,,,0.00,WUHU216HW,2013-10-25 11:49:00,
2013-10-25 07:54:00,33.5,26.6,30.18,SW,225,3.4,4.7,76,0.00,,,0.00,WUHU216HW,2013-10-25 11:54:00,
2013-10-25 07:59:00,33.7,26.8,30.18,WSW,248,1.1,4.3,76,0.00,,,0.00,WUHU216HW,2013-10-25 11:59:00,
2013-10-25 08:04:00,33.8,27.0,30.18,WSW,248,0.2,2.5,76,0.00,,,0.00,WUHU216HW,2013-10-25 12:04:00,
2013-10-25 08:09:00,33.8,27.0,30.18,WSW,248,0.0,2.7,76,0.00,,,0.00,WUHU216HW,2013-10-25 12:09:00,
2013-10-25 08:14:00,33.8,27.0,30.18,South,180,2.2,2.7,76,0.00,,,0.00,WUHU216HW,2013-10-25 12:14:00,
2013-10-25 08:19:00,34.0,27.2,30.19,West,270,0.2,2.2,76,0.00,,,0.00,WUHU216HW,2013-10-25 12:19:00,
2013-10-25 08:24:00,34.2,27.4,30.19,West,270,0.2,0.7,76,0.00,,,0.00,WUHU216HW,2013-10-25 12:24:00,
2013-10-25 08:29:00,34.6,27.7,30.19,West,270,0.2,0.4,76,0.00,,,0.00,WUHU216HW,2013-10-25 12:29:00,
2013-10-25 08:34:00,34.7,27.9,30.19,SSW,203,0.4,0.4,76,0.00,,,0.00,WUHU216HW,2013-10-25 12:34:00,
2013-10-25 08:39:00,35.1,27.9,30.19,WSW,248,0.2,1.3,75,0.00,,,0.00,WUHU216HW,2013-10-25 12:39:00,
2013-10-25 08:44:00,35.3,28.1,30.19,NW,315,0.7,1.3,75,0.00,,,0.00,WUHU216HW,2013-10-25 12:44:00,
2013-10-25 08:49:00,35.6,28.1,30.20,West,270,1.3,1.3,74,0.00,,,0.00,WUHU216HW,2013-10-25 12:49:00,
2013-10-25 08:54:00,36.0,28.4,30.20,NW,315,0.2,1.8,74,0.00,,,0.00,WUHU216HW,2013-10-25 12:54:00,
2013-10-25 08:59:00,36.2,28.4,30.20,WSW,248,0.2,2.9,73,0.00,,,0.00,WUHU216HW,2013-10-25 12:59:00,
2013-10-25 09:05:00,36.7,28.9,30.20,SW,225,2.5,2.9,73,0.00,,,0.00,WUHU216HW,2013-10-25 13:05:00,
2013-10-25 09:10:00,37.3,29.7,30.21,West,270,0.0,2.5,74,0.00,,,0.00,WUHU216HW,2013-10-25 13:10:00,
2013-10-25 09:15:00,37.8,29.6,30.21,WSW,248,1.1,1.8,72,0.00,,,0.00,WUHU216HW,2013-10-25 13:15:00,
2013-10-25 09:20:00,38.3,29.8,30.21,SW,225,0.4,1.8,71,0.00,,,0.00,WUHU216HW,2013-10-25 13:20:00,
2013-10-25 09:26:00,38.9,29.9,30.21,SSW,203,0.4,1.6,70,0.00,,,0.00,WUHU216HW,2013-10-25 13:26:00,
2013-10-25 09:31:00,39.4,30.4,30.21,SSW,203,3.8,3.8,70,0.00,,,0.00,WUHU216HW,2013-10-25 13:31:00,
2013-10-25 09:37:00,40.0,29.8,30.21,SSE,158,1.1,3.8,67,0.00,,,0.00,WUHU216HW,2013-10-25 13:37:00,
2013-10-25 09:42:00,40.7,30.5,30.21,WNW,293,0.4,3.1,67,0.00,,,0.00,WUHU216HW,2013-10-25 13:42:00,
2013-10-25 09:47:00,41.0,30.5,30.21,North,0,2.5,2.5,66,0.00,,,0.00,WUHU216HW,2013-10-25 13:47:00,
2013-10-25 09:52:00,41.4,30.5,30.21,SW,225,3.1,3.1,65,0.00,,,0.00,WUHU216HW,2013-10-25 13:52:00,
2013-10-25 09:58:00,42.1,30.8,30.21,SW,225,2.2,3.1,64,0.00,,,0.00,WUHU216HW,2013-10-25 13:58:00,
2013-10-25 10:03:00,42.5,31.2,30.21,WSW,248,1.6,6.7,64,0.00,,,0.00,WUHU216HW,2013-10-25 14:03:00,
2013-10-25 10:10:00,42.8,31.5,30.21,SSW,203,1.8,6.7,64,0.00,,,0.00,WUHU216HW,2013-10-25 14:10:00,
2013-10-25 10:15:00,43.2,31.1,30.21,North,0,0.9,2.2,62,0.00,,,0.00,WUHU216HW,2013-10-25 14:15:00,
2013-10-25 10:20:00,43.6,29.3,30.21,WNW,293,1.6,2.9,57,0.00,,,0.00,WUHU216HW,2013-10-25 14:20:00,
2013-10-25 10:25:00,43.9,30.5,30.21,SW,225,0.4,2.9,59,0.00,,,0.00,WUHU216HW,2013-10-25 14:25:00,
2013-10-25 10:30:00,44.3,31.3,30.21,NNW,338,0.9,1.1,60,0.00,,,0.00,WUHU216HW,2013-10-25 14:30:00,
2013-10-25 10:35:00,44.8,29.2,30.21,SSE,158,1.6,1.8,54,0.00,,,0.00,WUHU216HW,2013-10-25 14:35:00,
2013-10-25 10:40:00,45.0,29.8,30.21,North,0,1.8,2.2,55,0.00,,,0.00,WUHU216HW,2013-10-25 14:40:00,
2013-10-25 10:45:00,45.4,29.6,30.21,North,0,0.9,3.8,54,0.00,,,0.00,WUHU216HW,2013-10-25 14:45:00,
2013-10-25 10:50:00,45.7,30.4,30.21,NW,315,2.2,3.8,55,0.00,,,0.00,WUHU216HW,2013-10-25 14:50:00,
2013-10-25 10:55:00,46.4,30.2,30.22,NNW,338,1.8,3.4,53,0.00,,,0.00,WUHU216HW,2013-10-25 14:55:00,
2013-10-25 11:00:00,46.4,30.6,30.21,North,0,1.6,4.3,54,0.00,,,0.00,WUHU216HW,2013-10-25 15:00:00,
2013-10-25 11:05:00,47.0,30.3,30.22,NNE,23,1.6,4.3,52,0.00,,,0.00,WUHU216HW,2013-10-25 15:05:00,
2013-10-25 11:10:00,47.5,31.1,30.22,West,270,1.8,2.5,53,0.00,,,0.00,WUHU216HW,2013-10-25 15:10:00,
2013-10-25 11:15:00,47.9,30.6,30.22,North,0,4.5,4.5,51,0.00,,,0.00,WUHU216HW,2013-10-25 15:15:00,
2013-10-25 11:20:00,47.9,31.5,30.22,NNE,23,2.2,4.5,53,0.00,,,0.00,WUHU216HW,2013-10-25 15:20:00,
2013-10-25 11:25:00,48.2,30.9,30.22,North,0,4.0,4.0,51,0.00,,,0.00,WUHU216HW,2013-10-25 15:25:00,
2013-10-25 11:30:00,48.1,30.7,30.22,WNW,293,2.5,4.7,51,0.00,,,0.00,WUHU216HW,2013-10-25 15:30:00,
2013-10-25 11:35:00,48.2,32.3,30.22,NNE,23,4.0,4.7,54,0.00,,,0.00,WUHU216HW,2013-10-25 15:35:00,
2013-10-25 11:40:00,48.6,31.7,30.22,North,0,3.8,6.3,52,0.00,,,0.00,WUHU216HW,2013-10-25 15:40:00,
2013-10-25 11:45:00,48.6,32.1,30.22,North,0,5.1,6.3,53,0.00,,,0.00,WUHU216HW,2013-10-25 15:45:00,
2013-10-25 11:50:00,48.6,31.2,30.22,WSW,248,0.9,5.1,51,0.00,,,0.00,WUHU216HW,2013-10-25 15:50:00,
2013-10-25 11:55:00,48.6,31.2,30.22,North,0,3.4,4.5,51,0.00,,,0.00,WUHU216HW,2013-10-25 15:55:00,
2013-10-25 12:00:00,48.6,31.7,30.22,NW,315,2.7,6.5,52,0.00,,,0.00,WUHU216HW,2013-10-25 16:00:00,
2013-10-25 12:05:00,48.8,31.4,30.22,NNW,338,2.7,6.5,51,0.00,,,0.00,WUHU216HW,2013-10-25 16:05:00,
2013-10-25 12:10:00,48.6,30.8,30.22,North,0,5.1,5.1,50,0.00,,,0.00,WUHU216HW,2013-10-25 16:10:00,
2013-10-25 12:15:00,49.0,32.0,30.22,NW,315,0.4,5.1,52,0.00,,,0.00,WUHU216HW,2013-10-25 16:15:00,
2013-10-25 12:20:00,49.9,32.0,30.22,NW,315,3.4,3.6,50,0.00,,,0.00,WUHU216HW,2013-10-25 16:20:00,
2013-10-25 12:25:00,50.2,32.9,30.22,North,0,3.6,4.7,51,0.00,,,0.00,WUHU216HW,2013-10-25 16:25:00,
2013-10-25 12:30:00,50.4,32.6,30.22,WNW,293,3.6,4.7,50,0.00,,,0.00,WUHU216HW,2013-10-25 16:30:00,
2013-10-25 12:35:00,50.8,32.9,30.22,NNW,338,3.4,5.8,50,0.00,,,0.00,WUHU216HW,2013-10-25 16:35:00,
2013-10-25 12:40:00,51.7,32.6,30.22,NW,315,3.4,5.8,48,0.00,,,0.00,WUHU216HW,2013-10-25 16:40:00,
2013-10-25 12:45:00,51.7,32.6,30.23,North,0,4.0,7.2,48,0.00,,,0.00,WUHU216HW,2013-10-25 16:45:00,
2013-10-25 12:50:00,50.8,32.3,30.22,NNW,338,3.1,7.2,49,0.00,,,0.00,WUHU216HW,2013-10-25 16:50:00,
2013-10-25 12:55:00,50.4,32.0,30.22,NW,315,3.4,6.3,49,0.00,,,0.00,WUHU216HW,2013-10-25 16:55:00,
2013-10-25 13:00:00,50.8,33.8,30.22,NNE,23,6.3,6.3,52,0.00,,,0.00,WUHU216HW,2013-10-25 17:00:00,
2013-10-25 13:05:00,50.8,32.3,30.22,NNE,23,3.4,6.3,49,0.00,,,0.00,WUHU216HW,2013-10-25 17:05:00,
2013-10-25 13:10:00,50.8,32.3,30.22,NW,315,2.9,5.1,49,0.00,,,0.00,WUHU216HW,2013-10-25 17:10:00,
2013-10-25 13:15:00,50.8,32.9,30.22,NW,315,3.6,3.6,50,0.00,,,0.00,WUHU216HW,2013-10-25 17:15:00,
2013-10-25 13:20:00,50.6,32.1,30.22,NNW,338,2.2,4.0,49,0.00,,,0.00,WUHU216HW,2013-10-25 17:20:00,
2013-10-25 13:25:00,50.6,32.1,30.22,North,0,4.0,5.1,49,0.00,,,0.00,WUHU216HW,2013-10-25 17:25:00,
2013-10-25 13:30:00,50.0,33.1,30.22,NNW,338,4.9,6.7,52,0.00,,,0.00,WUHU216HW,2013-10-25 17:30:00,
2013-10-25 13:35:00,50.0,32.7,30.22,North,0,2.9,6.7,51,0.00,,,0.00,WUHU216HW,2013-10-25 17:35:00,
2013-10-25 13:40:00,50.2,32.9,30.22,East,90,3.8,5.4,51,0.00,,,0.00,WUHU216HW,2013-10-25 17:40:00,
2013-10-25 13:45:00,50.2,31.9,30.22,NW,315,4.3,5.6,49,0.00,,,0.00,WUHU216HW,2013-10-25 17:45:00,
2013-10-25 13:50:00,50.4,32.6,30.22,North,0,1.1,5.6,50,0.00,,,0.00,WUHU216HW,2013-10-25 17:50:00,
2013-10-25 13:55:00,50.6,32.1,30.21,NW,315,2.9,4.7,49,0.00,,,0.00,WUHU216HW,2013-10-25 17:55:00,
2013-10-25 14:00:00,49.7,31.9,30.22,NW,315,4.0,6.5,50,0.00,,,0.00,WUHU216HW,2013-10-25 18:00:00,
2013-10-25 14:05:00,49.0,31.6,30.21,NE,45,4.5,6.5,51,0.00,,,0.00,WUHU216HW,2013-10-25 18:05:00,
2013-10-25 14:10:00,49.3,32.4,30.21,North,0,5.8,6.9,52,0.00,,,0.00,WUHU216HW,2013-10-25 18:10:00,
2013-10-25 14:16:00,50.6,33.6,30.21,North,0,2.9,8.5,52,0.00,,,0.00,WUHU216HW,2013-10-25 18:16:00,
2013-10-25 14:21:00,50.8,32.9,30.21,NW,315,8.1,8.5,50,0.00,,,0.00,WUHU216HW,2013-10-25 18:21:00,
2013-10-25 14:26:00,49.7,31.9,30.21,North,0,1.8,8.5,50,0.00,,,0.00,WUHU216HW,2013-10-25 18:26:00,
2013-10-25 14:31:00,49.3,32.0,30.21,WNW,293,3.4,8.3,51,0.00,,,0.00,WUHU216HW,2013-10-25 18:31:00,
2013-10-25 14:36:00,49.1,31.3,30.21,WNW,293,3.1,8.7,50,0.00,,,0.00,WUHU216HW,2013-10-25 18:36:00,
2013-10-25 14:41:00,48.8,31.0,30.21,NNE,23,4.7,8.7,50,0.00,,,0.00,WUHU216HW,2013-10-25 18:41:00,
2013-10-25 14:46:00,49.1,31.3,30.21,North,0,2.2,7.6,50,0.00,,,0.00,WUHU216HW,2013-10-25 18:46:00,
2013-10-25 14:51:00,49.1,30.3,30.21,NNW,338,1.8,6.3,48,0.00,,,0.00,WUHU216HW,2013-10-25 18:51:00,
2013-10-25 14:56:00,49.3,31.5,30.20,North,0,7.6,7.6,50,0.00,,,0.00,WUHU216HW,2013-10-25 18:56:00,
2013-10-25 15:01:00,49.5,31.2,30.20,NW,315,3.1,7.6,49,0.00,,,0.00,WUHU216HW,2013-10-25 19:01:00,
2013-10-25 15:06:00,49.0,30.1,30.21,North,0,3.8,6.9,48,0.00,,,0.00,WUHU216HW,2013-10-25 19:06:00,
2013-10-25 15:11:00,49.1,29.2,30.20,NNW,338,2.7,6.3,46,0.00,,,0.00,WUHU216HW,2013-10-25 19:11:00,
2013-10-25 15:16:00,49.1,30.3,30.20,NNE,23,4.5,5.4,48,0.00,,,0.00,WUHU216HW,2013-10-25 19:16:00,
2013-10-25 15:21:00,49.5,31.2,30.20,NNE,23,5.4,7.4,49,0.00,,,0.00,WUHU216HW,2013-10-25 19:21:00,
2013-10-25 15:26:00,49.7,31.3,30.20,NNW,338,5.4,7.4,49,0.00,,,0.00,WUHU216HW,2013-10-25 19:26:00,
2013-10-25 15:31:00,49.5,31.2,30.21,NNW,338,2.2,6.7,49,0.00,,,0.00,WUHU216HW,2013-10-25 19:31:00,
2013-10-25 15:36:00,49.7,30.8,30.21,North,0,5.4,5.4,48,0.00,,,0.00,WUHU216HW,2013-10-25 19:36:00,
2013-10-25 15:41:00,49.5,31.2,30.21,North,0,5.8,5.8,49,0.00,,,0.00,WUHU216HW,2013-10-25 19:41:00,
2013-10-25 15:46:00,49.5,30.6,30.21,NW,315,1.6,5.8,48,0.00,,,0.00,WUHU216HW,2013-10-25 19:46:00,
2013-10-25 15:51:00,49.5,30.6,30.21,NNW,338,4.7,6.3,48,0.00,,,0.00,WUHU216HW,2013-10-25 19:51:00,
2013-10-25 15:56:00,49.5,30.6,30.21,North,0,4.3,6.3,48,0.00,,,0.00,WUHU216HW,2013-10-25 19:56:00,
2013-10-25 16:01:00,49.5,31.2,30.20,NNE,23,5.6,7.4,49,0.00,,,0.00,WUHU216HW,2013-10-25 20:01:00,
2013-10-25 16:06:00,49.3,31.0,30.21,NNW,338,2.2,7.4,49,0.00,,,0.00,WUHU216HW,2013-10-25 20:06:00,
2013-10-25 16:11:00,49.3,31.0,30.21,NE,45,6.3,6.3,49,0.00,,,0.00,WUHU216HW,2013-10-25 20:11:00,
2013-10-25 16:16:00,49.3,31.0,30.22,North,0,2.7,6.3,49,0.00,,,0.00,WUHU216HW,2013-10-25 20:16:00,
2013-10-25 16:21:00,49.1,30.3,30.22,North,0,2.5,3.6,48,0.00,,,0.00,WUHU216HW,2013-10-25 20:21:00,
2013-10-25 16:26:00,49.1,30.8,30.22,North,0,4.7,6.9,49,0.00,,,0.00,WUHU216HW,2013-10-25 20:26:00,
2013-10-25 16:31:00,49.0,29.5,30.22,NNE,23,3.1,6.9,47,0.00,,,0.00,WUHU216HW,2013-10-25 20:31:00,
2013-10-25 16:36:00,48.8,29.9,30.22,North,0,4.7,4.7,48,0.00,,,0.00,WUHU216HW,2013-10-25 20:36:00,
2013-10-25 16:41:00,48.6,29.7,30.22,NNW,338,4.0,4.9,48,0.00,,,0.00,WUHU216HW,2013-10-25 20:41:00,
2013-10-25 16:46:00,48.6,30.3,30.22,NNE,23,7.2,7.2,49,0.00,,,0.00,WUHU216HW,2013-10-25 20:46:00,
2013-10-25 16:51:00,48.4,30.6,30.22,NNW,338,4.9,7.2,50,0.00,,,0.00,WUHU216HW,2013-10-25 20:51:00,
2013-10-25 16:56:00,48.2,29.9,30.21,NNE,23,6.9,8.3,49,0.00,,,0.00,WUHU216HW,2013-10-25 20:56:00,
2013-10-25 17:01:00,47.9,29.5,30.22,NNW,338,2.7,8.3,49,0.00,,,0.00,WUHU216HW,2013-10-25 21:01:00,
2013-10-25 17:06:00,47.9,29.0,30.22,NNW,338,2.0,4.3,48,0.00,,,0.00,WUHU216HW,2013-10-25 21:06:00,
2013-10-25 17:11:00,47.9,29.0,30.22,NNE,23,1.6,2.5,48,0.00,,,0.00,WUHU216HW,2013-10-25 21:11:00,
2013-10-25 17:16:00,47.9,29.0,30.22,North,0,4.0,4.5,48,0.00,,,0.00,WUHU216HW,2013-10-25 21:16:00,
2013-10-25 17:21:00,47.7,28.4,30.22,NW,315,2.9,4.5,47,0.00,,,0.00,WUHU216HW,2013-10-25 21:21:00,
2013-10-25 17:26:00,47.3,28.5,30.22,NNW,338,3.4,3.4,48,0.00,,,0.00,WUHU216HW,2013-10-25 21:26:00,
2013-10-25 17:31:00,47.2,28.9,30.22,North,0,3.4,4.3,49,0.00,,,0.00,WUHU216HW,2013-10-25 21:31:00,
2013-10-25 17:36:00,47.2,29.4,30.23,NW,315,1.3,4.3,50,0.00,,,0.00,WUHU216HW,2013-10-25 21:36:00,
2013-10-25 17:41:00,47.0,29.3,30.23,North,0,2.2,3.4,50,0.00,,,0.00,WUHU216HW,2013-10-25 21:41:00,
2013-10-25 17:46:00,46.6,29.4,30.23,North,0,3.1,3.6,51,0.00,,,0.00,WUHU216HW,2013-10-25 21:46:00,
2013-10-25 17:51:00,46.4,29.3,30.23,North,0,2.5,3.6,51,0.00,,,0.00,WUHU216HW,2013-10-25 21:51:00,
2013-10-25 17:56:00,46.1,29.3,30.23,NNW,338,2.0,3.4,52,0.00,,,0.00,WUHU216HW,2013-10-25 21:56:00,
2013-10-25 18:01:00,45.7,29.5,30.23,NNW,338,0.9,3.8,53,0.00,,,0.00,WUHU216HW,2013-10-25 22:01:00,
2013-10-25 18:06:00,45.5,29.3,30.24,North,0,1.1,3.8,53,0.00,,,0.00,WUHU216HW,2013-10-25 22:06:00,
2013-10-25 18:11:00,45.4,29.6,30.24,North,0,0.7,3.4,54,0.00,,,0.00,WUHU216HW,2013-10-25 22:11:00,
2013-10-25 18:16:00,45.0,29.8,30.24,North,0,0.9,1.8,55,0.00,,,0.00,WUHU216HW,2013-10-25 22:16:00,
2013-10-25 18:21:00,44.6,28.5,30.24,NE,45,2.5,4.7,53,0.00,,,0.00,WUHU216HW,2013-10-25 22:21:00,
2013-10-25 18:26:00,44.5,28.4,30.25,NNW,338,2.9,4.7,53,0.00,,,0.00,WUHU216HW,2013-10-25 22:26:00,
2013-10-25 18:31:00,44.3,28.2,30.25,NNW,338,0.4,4.7,53,0.00,,,0.00,WUHU216HW,2013-10-25 22:31:00,
2013-10-25 18:36:00,44.1,28.0,30.25,North,0,1.1,5.1,53,0.00,,,0.00,WUHU216HW,2013-10-25 22:36:00,
2013-10-25 18:41:00,43.7,27.7,30.25,NNW,338,0.9,5.1,53,0.00,,,0.00,WUHU216HW,2013-10-25 22:41:00,
2013-10-25 18:46:00,43.6,28.0,30.25,NNE,23,0.9,1.8,54,0.00,,,0.00,WUHU216HW,2013-10-25 22:46:00,
2013-10-25 18:51:00,43.4,27.8,30.25,NNW,338,0.7,1.8,54,0.00,,,0.00,WUHU216HW,2013-10-25 22:51:00,
2013-10-25 18:56:00,43.2,27.6,30.25,WNW,293,0.0,0.9,54,0.00,,,0.00,WUHU216HW,2013-10-25 22:56:00,
2013-10-25 19:01:00,43.0,27.5,30.25,NNW,338,0.0,0.7,54,0.00,,,0.00,WUHU216HW,2013-10-25 23:01:00,
2013-10-25 19:06:00,42.7,27.5,30.25,NNW,338,0.2,0.4,55,0.00,,,0.00,WUHU216HW,2013-10-25 23:06:00,
2013-10-25 19:11:00,42.5,27.8,30.25,NW,315,0.4,0.7,56,0.00,,,0.00,WUHU216HW,2013-10-25 23:11:00,
2013-10-25 19:16:00,42.3,27.6,30.25,WNW,293,0.4,0.9,56,0.00,,,0.00,WUHU216HW,2013-10-25 23:16:00,
2013-10-25 19:21:00,42.3,27.6,30.26,WNW,293,0.4,0.9,56,0.00,,,0.00,WUHU216HW,2013-10-25 23:21:00,
2013-10-25 19:26:00,42.3,27.2,30.26,WNW,293,0.2,0.4,55,0.00,,,0.00,WUHU216HW,2013-10-25 23:26:00,
2013-10-25 19:31:00,42.1,27.0,30.26,WNW,293,0.0,0.4,55,0.00,,,0.00,WUHU216HW,2013-10-25 23:31:00,
2013-10-25 19:36:00,41.9,27.3,30.25,WSW,248,0.0,0.0,56,0.00,,,0.00,WUHU216HW,2013-10-25 23:36:00,
2013-10-25 19:41:00,41.6,27.0,30.26,SW,225,0.4,0.4,56,0.00,,,0.00,WUHU216HW,2013-10-25 23:41:00,
2013-10-25 19:46:00,41.4,26.8,30.26,SW,225,0.4,0.4,56,0.00,,,0.00,WUHU216HW,2013-10-25 23:46:00,
2013-10-25 19:51:00,41.0,26.5,30.26,SW,225,0.2,0.7,56,0.00,,,0.00,WUHU216HW,2013-10-25 23:51:00,
2013-10-25 19:56:00,40.7,26.6,30.26,WSW,248,0.0,0.7,57,0.00,,,0.00,WUHU216HW,2013-10-25 23:56:00,
2013-10-25 20:01:00,40.7,26.6,30.26,SW,225,0.7,0.7,57,0.00,,,0.00,WUHU216HW,2013-10-26 00:01:00,
2013-10-25 20:06:00,40.3,26.2,30.26,WSW,248,0.0,0.7,57,0.00,,,0.00,WUHU216HW,2013-10-26 00:06:00,
2013-10-25 20:11:00,40.1,26.0,30.26,SW,225,0.0,0.4,57,0.00,,,0.00,WUHU216HW,2013-10-26 00:11:00,
2013-10-25 20:16:00,40.0,26.3,30.26,SW,225,0.0,0.4,58,0.00,,,0.00,WUHU216HW,2013-10-26 00:16:00,
2013-10-25 20:21:00,39.8,26.1,30.26,WSW,248,0.4,0.4,58,0.00,,,0.00,WUHU216HW,2013-10-26 00:21:00,
2013-10-25 20:26:00,39.4,26.2,30.26,WSW,248,0.0,0.4,59,0.00,,,0.00,WUHU216HW,2013-10-26 00:26:00,
2013-10-25 20:31:00,39.2,26.0,30.26,WSW,248,0.0,0.0,59,0.00,,,0.00,WUHU216HW,2013-10-26 00:31:00,
2013-10-25 20:36:00,39.1,25.8,30.26,WSW,248,0.0,0.0,59,0.00,,,0.00,WUHU216HW,2013-10-26 00:36:00,
2013-10-25 20:41:00,38.9,25.8,30.26,WSW,248,0.0,0.0,59,0.00,,,0.00,WUHU216HW,2013-10-26 00:41:00,
2013-10-25 20:46:00,38.7,26.0,30.26,WSW,248,0.0,0.0,60,0.00,,,0.00,WUHU216HW,2013-10-26 00:46:00,
2013-10-25 20:51:00,38.5,25.8,30.26,WSW,248,0.0,0.0,60,0.00,,,0.00,WUHU216HW,2013-10-26 00:51:00,
2013-10-25 20:56:00,38.3,26.0,30.26,WSW,248,0.0,0.0,61,0.00,,,0.00,WUHU216HW,2013-10-26 00:56:00,
2013-10-25 21:01:00,38.2,26.3,30.25,WSW,248,0.0,0.0,62,0.00,,,0.00,WUHU216HW,2013-10-26 01:01:00,
2013-10-25 21:06:00,37.8,25.9,30.26,WSW,248,0.0,0.0,62,0.00,,,0.00,WUHU216HW,2013-10-26 01:06:00,
2013-10-25 21:11:00,37.8,26.3,30.26,WSW,248,0.0,0.0,63,0.00,,,0.00,WUHU216HW,2013-10-26 01:11:00,
2013-10-25 21:16:00,37.4,25.6,30.26,WSW,248,0.0,0.0,62,0.00,,,0.00,WUHU216HW,2013-10-26 01:16:00,
2013-10-25 21:21:00,37.1,25.3,30.26,WSW,248,0.0,0.0,62,0.00,,,0.00,WUHU216HW,2013-10-26 01:21:00,
2013-10-25 21:26:00,36.7,25.3,30.26,WSW,248,0.0,0.0,63,0.00,,,0.00,WUHU216HW,2013-10-26 01:26:00,
2013-10-25 21:31:00,36.4,25.4,30.26,SW,225,0.4,0.4,64,0.00,,,0.00,WUHU216HW,2013-10-26 01:31:00,
2013-10-25 21:36:00,36.0,25.0,30.26,SW,225,0.0,1.3,64,0.00,,,0.00,WUHU216HW,2013-10-26 01:36:00,
2013-10-25 21:41:00,35.6,25.0,30.26,SW,225,0.0,1.3,65,0.00,,,0.00,WUHU216HW,2013-10-26 01:41:00,
2013-10-25 21:46:00,35.5,25.2,30.25,SW,225,0.0,0.0,66,0.00,,,0.00,WUHU216HW,2013-10-26 01:46:00,
2013-10-25 21:51:00,35.1,24.8,30.25,SW,225,0.0,0.0,66,0.00,,,0.00,WUHU216HW,2013-10-26 01:51:00,
2013-10-25 21:56:00,34.9,24.7,30.26,NNW,338,0.0,0.2,66,0.00,,,0.00,WUHU216HW,2013-10-26 01:56:00,
2013-10-25 22:01:00,34.7,24.8,30.26,WSW,248,0.0,0.2,67,0.00,,,0.00,WUHU216HW,2013-10-26 02:01:00,
2013-10-25 22:07:00,34.2,24.7,30.26,WSW,248,0.0,0.2,68,0.00,,,0.00,WUHU216HW,2013-10-26 02:07:00,
2013-10-25 22:12:00,34.0,24.1,30.26,WSW,248,0.0,0.0,67,0.00,,,0.00,WUHU216HW,2013-10-26 02:12:00,
2013-10-25 22:17:00,34.0,24.5,30.26,SW,225,0.0,0.0,68,0.00,,,0.00,WUHU216HW,2013-10-26 02:17:00,
2013-10-25 22:22:00,33.8,24.3,30.26,SW,225,0.0,0.0,68,0.00,,,0.00,WUHU216HW,2013-10-26 02:22:00,
2013-10-25 22:27:00,33.7,24.1,30.26,SW,225,0.0,0.0,68,0.00,,,0.00,WUHU216HW,2013-10-26 02:27:00,
2013-10-25 22:32:00,33.5,24.3,30.26,SW,225,0.0,0.0,69,0.00,,,0.00,WUHU216HW,2013-10-26 02:32:00,
2013-10-25 22:37:00,33.5,24.7,30.26,SW,225,0.0,0.4,70,0.00,,,0.00,WUHU216HW,2013-10-26 02:37:00,
2013-10-25 22:42:00,33.3,24.6,30.26,SW,225,0.4,0.4,70,0.00,,,0.00,WUHU216HW,2013-10-26 02:42:00,
2013-10-25 22:47:00,33.1,24.4,30.26,WSW,248,0.0,1.1,70,0.00,,,0.00,WUHU216HW,2013-10-26 02:47:00,
2013-10-25 22:52:00,32.8,24.0,30.26,SW,225,0.0,1.1,70,0.00,,,0.00,WUHU216HW,2013-10-26 02:52:00,
2013-10-25 22:57:00,32.8,24.0,30.26,SW,225,0.0,0.4,70,0.00,,,0.00,WUHU216HW,2013-10-26 02:57:00,
2013-10-25 23:02:00,32.8,24.0,30.26,SW,225,0.0,0.0,70,0.00,,,0.00,WUHU216HW,2013-10-26 03:02:00,
2013-10-25 23:07:00,32.6,24.6,30.26,WSW,248,0.0,0.0,72,0.00,,,0.00,WUHU216HW,2013-10-26 03:07:00,
2013-10-25 23:12:00,32.6,24.2,30.26,WSW,248,0.2,0.4,71,0.00,,,0.00,WUHU216HW,2013-10-26 03:12:00,
2013-10-25 23:17:00,32.8,24.0,30.26,NW,315,0.0,0.9,70,0.00,,,0.00,WUHU216HW,2013-10-26 03:17:00,
2013-10-25 23:22:00,32.8,24.0,30.26,West,270,0.0,0.9,70,0.00,,,0.00,WUHU216HW,2013-10-26 03:22:00,
2013-10-25 23:27:00,32.9,24.2,30.26,SW,225,0.9,0.9,70,0.00,,,0.00,WUHU216HW,2013-10-26 03:27:00,
2013-10-25 23:32:00,33.1,24.4,30.26,WSW,248,0.0,0.9,70,0.00,,,0.00,WUHU216HW,2013-10-26 03:32:00,
2013-10-25 23:37:00,33.3,24.6,30.26,WSW,248,0.0,0.9,70,0.00,,,0.00,WUHU216HW,2013-10-26 03:37:00,
2013-10-25 23:42:00,33.5,24.7,30.26,West,270,0.2,0.9,70,0.00,,,0.00,WUHU216HW,2013-10-26 03:42:00,
2013-10-25 23:47:00,33.5,24.7,30.26,WSW,248,0.0,0.2,70,0.00,,,0.00,WUHU216HW,2013-10-26 03:47:00,
2013-10-25 23:52:00,33.5,24.7,30.26,WNW,293,0.0,0.2,70,0.00,,,0.00,WUHU216HW,2013-10-26 03:52:00,
2013-10-25 23:57:00,33.5,24.7,30.25,SSW,203,0.2,1.1,70,0.00,,,0.00,WUHU216HW,2013-10-26 03:57:00,